Wind_Speed
95 90 70 74 84 99 101 84 77 60 48 42 42 45 44 53 62 67 72 75 81 83 83 83 85 86 93 97 98 95 91 88 87 82 80 79 76 81 85 85 87 88 94 100 108 112 109
98 98 73 78 86 99 94 73 68 55 42 34 30 31 32 47 52 59 66 71 75 79 82 81 85 87 91 97 99 97 96 94 91 89 88 82 79 77 84 84 84 85 88 91 98 105 111
98 99 85 78 87 99 84 69 64 57 47 39 31 25 27 38 48 54 61 67 74 77 78 80 82 84 87 95 99 103 102 96 93 92 90 85 81 80 80 85 85 85 87 89 90 91 98
103 107 94 84 91 103 89 78 72 70 56 39 26 21 20 24 25 37 46 50 62 68 74 78 80 82 83 91 101 101 100 97 91 88 84 83 82 80 81 82 84 87 85 86 85 85 88
104 108 99 92 92 104 105 85 83 79 72 57 43 28 18 15 13 20 28 37 48 53 61 66 72 75 80 80 90 96 95 90 85 83 82 81 80 81 80 80 83 87 85 86 89 85 79
104 107 107 104 92 101 110 97 84 84 83 73 55 40 26 14 8 11 19 27 38 43 46 53 62 67 73 76 81 88 87 84 81 75 73 75 76 77 78 79 81 84 86 83 83 78 73
103 108 113 118 99 100 108 113 94 87 83 78 68 51 34 21 10 1 10 18 27 34 37 46 51 57 58 65 69 73 73 67 66 67 64 67 69 69 75 77 78 78 77 79 78 74 68
106 109 116 118 109 100 105 113 110 97 87 82 76 64 45 31 21 14 7 14 22 32 37 38 40 44 45 48 52 56 55 54 57 60 59 60 62 65 67 70 69 67 68 69 75 70 61
104 111 117 121 122 109 104 110 114 108 97 89 81 74 59 42 31 30 19 5 14 26 34 37 36 36 38 43 44 42 44 47 50 51 53 56 57 58 60 60 60 58 61 64 59 52 51
98 108 113 122 122 121 114 107 111 114 107 97 86 80 73 57 44 38 31 24 11 4 6 17 29 20 26 42 44 39 35 39 41 41 43 43 44 47 50 50 50 46 45 44 41 40 41
94 102 112 113 123 124 127 111 107 110 111 109 96 85 78 72 59 50 42 33 24 17 10 5 14 17 18 26 29 27 23 27 28 26 29 34 36 38 37 36 32 31 31 31 31 34 35
91 100 110 112 117 127 126 123 116 104 108 107 108 90 81 74 67 59 54 47 38 29 22 20 20 17 16 14 14 15 17 20 23 24 24 26 26 23 21 21 23 22 22 24 27 29 33
86 96 102 103 113 121 127 119 122 107 99 102 105 101 89 76 69 58 58 54 49 42 33 27 21 18 17 20 19 19 19 18 18 18 14 13 15 13 13 16 17 18 21 21 22 24 25
81 88 97 101 110 117 122 123 122 112 97 96 100 99 98 83 70 63 58 56 53 45 38 33 29 25 23 21 21 21 21 18 18 16 15 13 12 13 16 15 16 14 13 15 16 17 18
79 78 89 98 103 108 116 122 120 115 105 92 95 94 95 93 72 64 65 60 49 42 41 38 35 30 27 25 24 22 22 21 20 18 17 16 15 14 14 13 12 13 12 12 12 13 15
72 76 81 94 98 102 109 117 120 118 105 98 92 93 88 85 83 78 76 61 55 48 40 34 30 27 25 24 24 24 23 21 20 18 16 14 15 15 16 15 15 17 15 15 14 15 15
69 70 77 84 91 94 103 108 114 113 116 111 97 93 93 85 83 86 75 65 60 51 44 40 36 32 28 24 22 22 21 20 20 20 21 21 18 17 18 20 23 21 20 18 16 16 13
62 64 73 78 83 88 98 101 106 106 109 114 101 97 90 88 78 76 82 78 69 60 49 43 41 37 34 32 28 23 25 27 25 23 22 21 19 21 22 23 21 19 15 12 14 17 12
58 62 67 75 78 86 93 95 96 96 106 108 106 106 90 89 89 78 74 76 79 73 66 53 47 46 43 38 35 34 34 32 29 27 25 22 20 21 21 19 19 19 16 16 14 14 14
53 58 65 68 73 79 86 90 91 94 97 103 103 104 104 91 89 87 82 71 70 70 72 67 61 53 49 45 41 38 36 33 31 27 25 21 18 20 21 22 23 22 16 18 15 12 15
50 52 58 63 69 75 78 84 89 88 92 100 102 103 105 100 93 92 84 78 72 66 65 65 69 68 62 54 48 43 38 34 32 27 25 19 17 17 19 18 19 18 16 18 18 15 16
47 51 53 56 64 70 70 76 78 84 85 91 98 99 103 101 100 91 85 81 78 71 65 62 62 63 64 63 57 50 44 37 34 29 28 25 14 8 12 16 16 17 16 14 18 13 16
45 50 53 56 63 66 62 67 70 75 76 84 90 94 98 99 101 95 87 88 77 80 70 64 59 56 55 56 55 55 51 45 38 30 25 24 20 12 5 11 16 4 8 12 13 14 12
48 50 51 55 58 57 57 63 62 66 71 77 81 90 92 93 99 94 93 86 86 80 72 71 68 55 53 51 50 50 49 48 45 40 30 22 18 17 13 10 10 8 8 6 8 7 5
47 47 49 52 57 52 55 61 61 56 64 67 76 81 87 86 89 90 86 91 88 80 85 69 72 64 53 49 47 44 43 42 40 38 37 34 26 19 16 10 11 14 10 12 14 5 7
45 42 46 51 51 52 51 56 57 56 58 60 67 74 80 81 81 85 87 84 84 85 77 75 77 68 60 58 45 40 39 36 35 33 33 32 29 27 25 25 17 16 13 9 7 5 4
42 45 42 45 48 49 43 50 56 48 56 52 60 63 71 77 78 76 81 78 76 75 79 79 74 70 64 61 55 57 44 36 33 32 30 28 28 25 22 21 20 17 15 14 9 6 4
44 39 38 37 40 47 43 45 47 49 54 51 54 55 63 71 76 73 74 70 72 71 71 72 72 72 65 64 62 47 55 56 44 35 31 28 25 23 22 23 21 18 14 11 10 8 6
41 35 37 37 37 40 48 45 46 42 47 56 47 53 56 58 64 70 71 68 62 65 63 64 68 72 73 71 68 63 48 47 50 51 41 33 31 28 26 23 19 19 19 19 17 16 14
Wind_Direction
357 355 355 358 354 341 338 338 335 328 311 300 286 276 266 255 249 247 247 248 245 244 243 241 240 239 233 235 236 239 242 246 247 248 250 251 249 246 247 247 247 245 244 242 243 243 242
2 3 4 4 359 351 344 347 345 345 342 332 307 284 259 249 244 243 240 242 241 239 238 238 238 238 233 232 235 238 239 241 244 247 250 252 251 250 246 247 248 249 248 246 245 246 244
4 4 9 7 3 359 353 1 4 7 359 346 331 306 274 254 251 246 241 238 239 238 236 234 234 236 233 231 233 236 239 242 243 246 248 250 250 250 248 247 247 248 248 248 247 246 245
7 7 13 9 8 8 5 12 17 20 18 9 357 331 303 283 267 253 249 240 237 238 235 235 232 233 231 230 231 235 238 241 243 245 247 248 249 250 250 247 247 247 246 248 248 248 247
9 10 14 15 12 14 12 20 22 23 24 21 16 10 346 308 271 248 245 237 235 234 234 232 231 229 230 231 233 236 238 241 243 245 247 249 249 248 248 248 248 247 248 247 251 250 248
12 12 17 18 15 17 15 20 26 29 26 26 20 18 13 351 303 254 223 216 224 225 227 229 228 227 227 230 233 235 240 243 246 247 246 246 247 247 247 247 248 248 248 249 252 253 251
17 13 13 19 21 18 19 21 27 31 31 30 29 24 27 26 5 225 206 196 200 208 214 221 224 228 231 229 233 235 238 240 241 243 243 244 244 245 245 246 246 247 249 251 254 256 257
18 17 14 19 24 22 20 21 23 33 33 35 33 30 28 33 55 57 114 188 184 192 201 213 218 223 227 230 225 229 233 234 236 239 240 243 244 243 245 247 247 248 248 252 256 255 253
17 16 17 19 24 26 23 22 22 27 33 34 37 38 35 38 47 70 62 105 180 191 193 193 200 212 215 222 233 222 221 227 231 233 237 239 241 242 244 246 248 249 250 250 255 256 255
17 15 16 19 22 27 27 25 24 24 30 34 36 37 40 41 48 61 71 79 86 150 235 233 214 206 203 205 222 228 217 220 225 229 233 237 239 241 244 245 246 246 251 254 254 254 253
17 17 15 19 23 23 26 27 26 26 25 33 33 37 37 38 41 56 61 68 78 110 129 165 226 224 225 223 230 234 228 224 229 228 223 224 230 236 237 240 245 245 248 253 250 248 249
15 18 17 22 23 21 23 27 28 26 27 27 32 34 39 38 37 46 53 55 64 76 93 112 127 148 154 161 186 201 201 204 200 199 202 212 220 230 236 235 242 242 238 236 239 242 243
14 17 16 20 19 20 20 25 25 28 28 29 30 31 37 38 39 40 51 56 58 60 70 83 91 105 123 144 159 166 163 163 166 176 181 199 206 210 213 216 218 220 224 230 231 235 242
14 14 13 14 17 19 21 21 26 28 29 30 30 31 34 32 37 43 47 52 54 60 64 70 74 82 98 110 121 127 132 126 126 138 159 171 168 177 188 192 196 201 212 221 226 227 231
10 12 12 12 15 18 18 18 22 29 30 30 31 30 34 33 33 48 51 49 50 55 60 67 77 81 87 98 103 108 115 123 126 132 138 141 143 161 168 172 178 183 189 201 203 204 214
8 11 11 11 13 17 17 17 19 24 30 30 33 32 31 35 33 40 45 42 46 48 54 65 73 78 86 94 99 106 111 115 117 117 126 136 151 161 161 157 148 157 168 177 181 192 199
10 12 12 12 12 12 15 16 20 22 24 29 28 33 33 30 35 39 42 45 44 46 50 55 62 69 74 79 86 90 99 104 113 120 121 128 135 137 140 143 144 153 165 170 177 184 180
8 10 14 12 11 10 11 13 19 19 19 22 29 32 36 33 31 40 41 43 45 47 45 52 59 61 66 71 75 87 99 100 102 105 110 118 127 134 135 140 145 156 165 176 170 168 172
4 8 13 11 9 7 7 11 16 20 20 20 23 25 34 37 33 34 40 43 42 45 47 48 56 59 60 70 77 79 80 82 83 85 92 99 108 120 126 139 148 162 169 169 175 162 158
357 359 4 8 9 5 6 10 13 17 18 21 22 21 28 35 40 37 34 37 44 43 44 47 50 53 57 57 59 64 67 70 68 74 79 87 95 126 143 149 165 176 177 181 192 168 158
354 357 359 5 6 5 5 9 8 15 16 17 22 24 21 23 29 35 36 35 35 38 45 45 44 45 46 48 53 56 59 63 63 62 67 79 95 141 153 166 173 187 184 197 198 193 181
356 356 354 2 2 3 6 6 8 12 15 15 18 21 20 20 23 31 35 35 32 36 34 36 45 44 42 43 43 45 49 54 59 60 52 59 93 137 185 184 191 197 197 205 212 207 208
349 350 350 350 356 359 3 3 7 6 14 13 12 14 17 21 18 19 24 31 38 32 32 34 34 38 42 42 42 43 42 42 44 51 56 57 54 39 65 209 222 264 243 237 224 229 235
328 340 345 342 349 356 360 356 3 4 8 11 10 9 12 15 17 17 17 20 23 28 37 32 31 34 33 35 37 36 39 39 39 38 37 45 55 65 43 50 63 17 328 290 320 360 311
326 333 338 336 341 348 355 353 356 3 6 9 8 7 6 10 11 14 15 13 17 21 24 26 32 30 30 29 30 30 30 29 30 32 35 35 35 32 40 51 49 41 11 2 33 20 355
316 325 331 331 339 344 350 353 349 1 4 1 5 359 0 6 9 8 8 12 11 11 19 21 22 26 30 20 26 26 26 23 19 19 18 20 25 31 32 35 45 40 41 66 49 33 355
310 315 320 325 332 340 339 349 348 353 353 355 355 0 356 356 1 7 6 11 12 7 10 12 17 19 18 26 27 25 21 15 13 13 10 4 2 7 13 18 26 26 31 30 33 22 62
296 309 316 319 321 324 326 332 342 340 345 353 353 358 358 355 353 360 4 10 9 9 8 6 11 8 10 15 17 10 11 12 6 2 358 358 355 352 348 348 349 351 354 347 352 4 11
292 293 301 305 312 319 325 325 337 338 343 343 347 351 356 356 355 353 355 1 7 6 7 9 9 9 9 8 6 10 3 4 4 358 351 344 342 344 341 334 324 318 314 316 320 323 321
Height
10657 10625 10596 10572 10547 10510 10471 10440 10410 10390 10373 10363 10356 10350 10356 10358 10363 10370 10379 10387 10399 10411 10423 10435 10446 10460 10472 10482 10487 10496 10508 10516 10525 10535 10543 10549 10556 10563 10569 10575 10581 10592 10598 10604 10613 10615 10631
10652 10621 10587 10563 10538 10501 10458 10431 10397 10372 10356 10346 10340 10337 10339 10336 10342 10348 10357 10365 10374 10388 10403 10417 10429 10442 10453 10463 10473 10480 10486 10494 10508 10519 10525 10534 10541 10546 10551 10559 10568 10576 10580 10584 10592 10596 10611
10647 10617 10579 10554 10530 10499 10456 10425 10393 10369 10349 10335 10329 10326 10325 10324 10326 10331 10336 10346 10356 10370 10386 10399 10412 10424 10436 10446 10453 10456 10463 10479 10492 10502 10511 10519 10526 10532 10537 10542 10550 10556 10561 10566 10572 10579 10585
10640 10609 10577 10551 10525 10492 10455 10418 10389 10369 10353 10341 10329 10320 10315 10313 10317 10320 10325 10335 10342 10354 10369 10383 10396 10409 10417 10426 10430 10438 10447 10462 10476 10488 10498 10505 10510 10515 10520 10526 10532 10537 10546 10549 10552 10558 10565
10635 10608 10576 10547 10522 10487 10460 10422 10391 10369 10353 10337 10325 10317 10312 10309 10308 10309 10314 10322 10333 10345 10356 10370 10382 10393 10400 10409 10421 10426 10435 10449 10463 10475 10484 10491 10496 10499 10503 10510 10516 10521 10529 10535 10533 10540 10552
10633 10606 10578 10547 10519 10492 10464 10433 10404 10382 10360 10343 10331 10320 10314 10309 10304 10303 10306 10312 10323 10336 10348 10360 10369 10382 10389 10397 10408 10415 10424 10438 10452 10462 10470 10476 10480 10484 10491 10495 10502 10507 10512 10518 10518 10525 10539
10632 10608 10582 10553 10521 10496 10470 10443 10416 10388 10371 10354 10340 10329 10319 10313 10308 10305 10306 10310 10317 10329 10340 10346 10356 10366 10377 10390 10400 10405 10417 10430 10441 10449 10456 10460 10465 10473 10474 10481 10486 10493 10501 10505 10506 10510 10525
10634 10610 10583 10559 10529 10504 10480 10453 10431 10398 10381 10366 10354 10340 10330 10320 10313 10309 10311 10313 10317 10325 10332 10340 10351 10360 10369 10378 10391 10401 10411 10423 10431 10437 10444 10450 10455 10459 10464 10469 10476 10482 10489 10491 10489 10499 10513
10635 10614 10590 10565 10539 10511 10488 10465 10440 10415 10391 10375 10364 10356 10344 10334 10324 10315 10316 10318 10321 10326 10332 10337 10346 10356 10366 10374 10380 10393 10405 10414 10421 10430 10436 10441 10445 10450 10454 10459 10464 10473 10477 10477 10484 10495 10501
10640 10620 10598 10575 10550 10524 10501 10479 10454 10430 10410 10389 10376 10364 10358 10352 10340 10331 10325 10326 10330 10336 10341 10345 10350 10356 10362 10370 10376 10384 10397 10406 10414 10422 10429 10435 10440 10443 10446 10451 10456 10463 10468 10474 10479 10483 10485
10645 10627 10606 10585 10561 10539 10517 10494 10473 10449 10429 10407 10393 10379 10368 10363 10357 10347 10341 10338 10340 10342 10346 10350 10354 10364 10370 10376 10383 10389 10397 10404 10411 10418 10422 10427 10431 10435 10441 10446 10453 10458 10462 10467 10470 10472 10475
10650 10632 10614 10594 10573 10552 10531 10510 10490 10469 10450 10433 10412 10401 10388 10378 10371 10362 10355 10352 10351 10352 10354 10356 10359 10365 10370 10375 10382 10390 10394 10399 10405 10412 10417 10421 10426 10432 10439 10444 10448 10453 10457 10459 10462 10466 10467
10655 10640 10623 10605 10586 10567 10547 10524 10506 10485 10469 10454 10435 10421 10404 10399 10390 10385 10377 10371 10367 10365 10366 10367 10370 10372 10373 10378 10383 10389 10395 10401 10405 10412 10418 10423 10427 10432 10437 10440 10444 10448 10451 10455 10459 10461 10463
10661 10646 10631 10615 10599 10581 10562 10543 10524 10505 10489 10472 10458 10444 10427 10418 10409 10401 10393 10384 10381 10383 10382 10379 10379 10381 10382 10386 10390 10393 10398 10404 10407 10413 10419 10424 10427 10431 10433 10438 10441 10446 10450 10452 10454 10457 10461
10668 10653 10640 10625 10610 10593 10575 10558 10540 10524 10510 10495 10478 10465 10449 10444 10435 10420 10407 10400 10400 10398 10394 10393 10392 10394 10394 10396 10397 10400 10404 10407 10411 10416 10422 10426 10428 10431 10433 10437 10442 10445 10447 10450 10453 10456 10458
10674 10660 10647 10633 10621 10606 10591 10573 10556 10541 10528 10515 10499 10484 10472 10465 10453 10422 10411 10418 10415 10412 10409 10405 10402 10403 10404 10405 10406 10408 10412 10415 10417 10420 10424 10427 10429 10431 10435 10438 10443 10445 10447 10450 10453 10455 10458
10680 10668 10654 10643 10630 10618 10604 10589 10574 10558 10542 10530 10516 10499 10486 10479 10465 10449 10442 10436 10429 10425 10423 10420 10416 10414 10414 10415 10416 10418 10420 10422 10424 10425 10427 10430 10432 10434 10437 10441 10444 10446 10448 10452 10455 10456 10459
10685 10675 10663 10651 10639 10627 10616 10603 10592 10577 10562 10548 10534 10522 10504 10495 10489 10474 10465 10454 10446 10442 10438 10433 10428 10426 10424 10424 10426 10428 10428 10429 10430 10432 10434 10436 10437 10438 10441 10445 10449 10452 10454 10456 10458 10460 10463
10689 10679 10670 10659 10647 10635 10627 10616 10603 10591 10579 10565 10553 10539 10528 10512 10504 10495 10485 10475 10467 10458 10451 10448 10443 10441 10440 10438 10436 10436 10436 10436 10438 10440 10442 10444 10444 10446 10448 10452 10456 10458 10459 10462 10462 10465 10467
10692 10683 10674 10665 10655 10643 10634 10625 10615 10602 10591 10581 10565 10554 10543 10534 10519 10508 10500 10494 10486 10480 10472 10466 10460 10457 10453 10452 10449 10447 10447 10447 10448 10449 10450 10450 10452 10454 10457 10460 10461 10461 10464 10466 10466 10468 10471
10694 10686 10678 10669 10661 10653 10644 10634 10624 10613 10600 10591 10581 10569 10557 10547 10537 10524 10514 10506 10501 10495 10489 10484 10476 10471 10466 10464 10463 10462 10461 10461 10461 10460 10460 10460 10460 10461 10464 10465 10466 10466 10469 10470 10471 10474 10476
10695 10688 10682 10673 10665 10659 10651 10643 10634 10623 10613 10601 10592 10580 10569 10558 10547 10539 10532 10523 10514 10509 10504 10497 10491 10488 10485 10481 10478 10475 10473 10472 10471 10470 10470 10469 10471 10471 10471 10472 10471 10472 10473 10474 10474 10476 10478
10696 10689 10684 10678 10669 10663 10656 10649 10641 10632 10621 10613 10603 10594 10584 10571 10559 10550 10543 10537 10531 10524 10517 10513 10506 10502 10500 10498 10495 10491 10488 10485 10483 10481 10480 10479 10480 10477 10478 10477 10477 10477 10478 10478 10479 10480 10481
10695 10691 10684 10679 10673 10665 10659 10654 10646 10637 10628 10621 10612 10603 10594 10584 10574 10564 10555 10550 10543 10539 10533 10527 10522 10518 10513 10508 10507 10505 10502 10500 10498 10496 10492 10490 10487 10486 10485 10484 10482 10484 10483 10483 10484 10485 10486
10695 10690 10684 10677 10674 10667 10661 10656 10650 10642 10634 10626 10619 10610 10603 10595 10587 10579 10569 10558 10555 10548 10544 10540 10534 10529 10524 10520 10517 10514 10512 10511 10510 10509 10506 10502 10498 10495 10491 10489 10488 10486 10485 10485 10485 10487 10487
10692 10686 10683 10677 10673 10667 10662 10656 10653 10646 10639 10630 10624 10618 10611 10606 10598 10590 10582 10574 10564 10557 10552 10548 10544 10540 10537 10532 10530 10527 10522 10520 10518 10516 10513 10511 10508 10504 10500 10495 10492 10492 10489 10489 10488 10486 10487
10686 10682 10679 10674 10671 10666 10661 10656 10655 10648 10640 10635 10628 10621 10615 10611 10605 10598 10591 10584 10575 10568 10560 10555 10549 10546 10543 10539 10535 10533 10530 10526 10524 10521 10518 10515 10513 10510 10508 10503 10500 10497 10495 10493 10491 10488 10487
10678 10678 10675 10671 10667 10663 10659 10655 10653 10649 10643 10635 10629 10625 10619 10611 10606 10601 10595 10590 10583 10576 10570 10564 10559 10550 10545 10542 10539 10535 10532 10528 10525 10523 10521 10519 10516 10513 10510 10506 10503 10501 10499 10499 10495 10492 10489
10670 10669 10670 10668 10663 10659 10656 10651 10650 10647 10643 10637 10630 10624 10621 10616 10609 10603 10598 10594 10590 10583 10576 10570 10564 10557 10551 10546 10541 10537 10535 10531 10526 10522 10520 10518 10517 10515 10512 10509 10506 10503 10500 10497 10494 10491 10488